Location: Mat�lon
(46.2791°N, 7.1028°E)
Time: 14:49:47
(UTC+00:00)

Meteor 2-13 Rocket - Pass Details

Date: 18 September 2020
Orbit: 936 x 958 km, 82.5° (Epoch: 23 October)

Event Time Altitude Azimuth Distance (km) Brightness Sun altitude
Rises 19:57:54 0° 349° (N) 3,650 8.1 -24.1°
Reaches altitude 10° 20:00:25 10° 348° (NNW) 2,700 7.3 -24.5°
Maximum altitude 20:06:35 78° 264° (W) 982 4.5 -25.4°
Enters shadow 20:09:02 39° 185° (S) 1,396 5.1 -25.7°
